Time,TemperatureF,DewpointF,PressureIn,WindDirection,WindDirectionDegrees,WindSpeedMPH,WindSpeedGustMPH,Humidity,HourlyPrecipIn,Conditions,Clouds,dailyrainin,SoftwareType,DateUTC
2013-06-27 00:01:00,70.3,69.7,29.91,SSW,202,0.0,0.0,98,0.00,RA,,0.00,WeatherDisplay:10.37,2013-06-27 04:01:00,
2013-06-27 00:06:00,70.2,69.6,29.91,SSW,202,0.0,0.0,98,0.00,RA,,0.00,WeatherDisplay:10.37,2013-06-27 04:06:00,
2013-06-27 00:11:00,70.2,69.6,29.91,SSW,202,0.0,0.0,98,0.00,CLR,,0.00,WeatherDisplay:10.37,2013-06-27 04:11:00,
2013-06-27 00:16:00,70.2,69.6,29.91,SSW,202,0.0,0.0,98,0.00,CLR,,0.00,WeatherDisplay:10.37,2013-06-27 04:16:00,
2013-06-27 00:21:00,70.2,69.6,29.91,SSW,202,0.0,0.0,98,0.00,CLR,,0.00,WeatherDisplay:10.37,2013-06-27 04:21:00,
2013-06-27 00:26:00,70.2,69.6,29.91,SSW,202,0.0,0.0,98,0.00,CLR,,0.00,WeatherDisplay:10.37,2013-06-27 04:26:00,
2013-06-27 00:31:00,70.0,69.4,29.91,SSW,202,0.0,0.0,98,0.00,CLR,,0.00,WeatherDisplay:10.37,2013-06-27 04:31:00,
2013-06-27 00:36:00,70.0,69.4,29.91,SSW,202,0.0,0.0,98,0.00,CLR,,0.00,WeatherDisplay:10.37,2013-06-27 04:36:00,
2013-06-27 00:41:00,70.0,69.4,29.91,SSW,202,0.0,0.0,98,0.00,CLR,,0.00,WeatherDisplay:10.37,2013-06-27 04:41:00,
2013-06-27 00:46:00,69.8,69.2,29.91,SSW,202,0.0,0.0,98,0.00,CLR,,0.00,WeatherDisplay:10.37,2013-06-27 04:46:00,
2013-06-27 00:51:00,69.8,69.2,29.91,SSW,202,0.0,0.0,98,0.00,CLR,,0.00,WeatherDisplay:10.37,2013-06-27 04:51:00,
2013-06-27 00:56:00,69.8,69.2,29.91,SSW,202,0.0,0.0,98,0.00,CLR,,0.00,WeatherDisplay:10.37,2013-06-27 04:56:00,
2013-06-27 01:01:00,69.6,69.0,29.91,SSW,202,0.0,0.0,98,0.00,CLR,,0.00,WeatherDisplay:10.37,2013-06-27 05:01:00,
2013-06-27 01:06:00,69.6,69.0,29.91,SSW,202,0.0,0.0,98,0.00,CLR,,0.00,WeatherDisplay:10.37,2013-06-27 05:06:00,
2013-06-27 01:11:00,69.4,68.9,29.91,SSW,202,0.0,0.0,98,0.00,CLR,,0.00,WeatherDisplay:10.37,2013-06-27 05:11:00,
2013-06-27 01:16:00,69.4,68.9,29.91,SSW,202,0.0,0.0,98,0.00,CLR,,0.00,WeatherDisplay:10.37,2013-06-27 05:16:00,
2013-06-27 01:21:00,69.3,68.7,29.91,SSW,202,0.0,0.0,98,0.00,CLR,,0.00,WeatherDisplay:10.37,2013-06-27 05:21:00,
2013-06-27 01:26:00,69.3,68.7,29.88,SSW,202,0.0,0.0,98,0.00,CLR,,0.00,WeatherDisplay:10.37,2013-06-27 05:26:00,
2013-06-27 01:31:00,69.1,68.5,29.88,SSW,202,0.0,0.0,98,0.00,CLR,,0.00,WeatherDisplay:10.37,2013-06-27 05:31:00,
2013-06-27 01:36:00,69.1,68.5,29.88,SSW,202,0.0,0.0,98,0.00,CLR,,0.00,WeatherDisplay:10.37,2013-06-27 05:36:00,
2013-06-27 01:41:00,69.1,68.5,29.88,SSW,202,0.0,0.0,98,0.00,CLR,,0.00,WeatherDisplay:10.37,2013-06-27 05:41:00,
2013-06-27 01:46:00,68.9,68.3,29.88,SSW,202,0.0,0.0,98,0.00,CLR,,0.00,WeatherDisplay:10.37,2013-06-27 05:46:00,
2013-06-27 01:51:00,68.9,68.3,29.88,SSW,202,0.0,0.0,98,0.00,CLR,,0.00,WeatherDisplay:10.37,2013-06-27 05:51:00,
2013-06-27 01:56:00,68.9,68.3,29.88,SSW,202,0.0,0.0,98,0.00,CLR,,0.00,WeatherDisplay:10.37,2013-06-27 05:56:00,
2013-06-27 02:01:00,68.7,68.1,29.88,SSW,202,0.0,0.0,98,0.00,CLR,,0.00,WeatherDisplay:10.37,2013-06-27 06:01:00,
2013-06-27 02:06:00,68.7,68.1,29.88,SSW,202,0.0,0.0,98,0.00,CLR,,0.00,WeatherDisplay:10.37,2013-06-27 06:06:00,
2013-06-27 02:11:00,68.7,68.1,29.88,SSW,202,0.0,0.0,98,0.00,CLR,,0.00,WeatherDisplay:10.37,2013-06-27 06:11:00,
2013-06-27 02:16:00,68.7,68.1,29.88,SSW,202,0.0,0.0,98,0.00,CLR,,0.00,WeatherDisplay:10.37,2013-06-27 06:16:00,
2013-06-27 02:21:00,68.7,68.1,29.88,SSW,202,0.0,0.0,98,0.00,CLR,,0.00,WeatherDisplay:10.37,2013-06-27 06:21:00,
2013-06-27 02:26:00,68.5,68.0,29.88,SSW,202,0.0,0.0,98,0.00,CLR,,0.00,WeatherDisplay:10.37,2013-06-27 06:26:00,
2013-06-27 02:31:00,68.5,68.0,29.88,SSW,202,0.0,0.0,98,0.00,CLR,,0.00,WeatherDisplay:10.37,2013-06-27 06:31:00,
2013-06-27 02:36:00,68.5,68.0,29.88,SSW,202,0.0,0.0,98,0.00,CLR,,0.00,WeatherDisplay:10.37,2013-06-27 06:36:00,
2013-06-27 02:41:00,68.5,68.0,29.88,SSW,202,0.0,0.0,98,0.00,CLR,,0.00,WeatherDisplay:10.37,2013-06-27 06:41:00,
2013-06-27 02:46:00,68.5,68.0,29.88,SSW,202,0.0,0.0,98,0.00,CLR,,0.00,WeatherDisplay:10.37,2013-06-27 06:46:00,
2013-06-27 02:51:00,68.4,67.8,29.88,SSW,202,0.0,0.0,98,0.00,CLR,,0.00,WeatherDisplay:10.37,2013-06-27 06:51:00,
2013-06-27 02:56:00,68.4,67.8,29.88,SSW,202,0.0,0.0,98,0.00,CLR,,0.00,WeatherDisplay:10.37,2013-06-27 06:56:00,
2013-06-27 03:01:00,68.4,67.8,29.88,SSW,202,0.0,0.0,98,0.00,CLR,,0.00,WeatherDisplay:10.37,2013-06-27 07:01:00,
2013-06-27 03:06:00,68.4,67.8,29.88,SSW,202,0.0,0.0,98,0.00,CLR,,0.00,WeatherDisplay:10.37,2013-06-27 07:06:00,
2013-06-27 03:11:00,68.4,67.8,29.88,SSW,202,0.0,0.0,98,0.00,CLR,,0.00,WeatherDisplay:10.37,2013-06-27 07:11:00,
2013-06-27 03:16:00,68.4,67.8,29.88,SSW,202,0.0,0.0,98,0.00,CLR,,0.00,WeatherDisplay:10.37,2013-06-27 07:16:00,
2013-06-27 03:21:00,68.4,67.8,29.88,SSW,202,0.0,0.0,98,0.00,CLR,,0.00,WeatherDisplay:10.37,2013-06-27 07:21:00,
2013-06-27 03:26:00,68.4,67.8,29.88,SSW,202,0.0,0.0,98,0.00,CLR,,0.00,WeatherDisplay:10.37,2013-06-27 07:26:00,
2013-06-27 03:31:00,68.2,67.6,29.88,SSW,202,0.0,0.0,98,0.00,CLR,,0.00,WeatherDisplay:10.37,2013-06-27 07:31:00,
2013-06-27 03:36:00,68.4,67.8,29.88,SSW,202,0.0,0.0,98,0.00,CLR,,0.00,WeatherDisplay:10.37,2013-06-27 07:36:00,
2013-06-27 03:41:00,68.4,67.8,29.85,SSW,202,0.0,0.0,98,0.00,CLR,,0.00,WeatherDisplay:10.37,2013-06-27 07:41:00,
2013-06-27 03:46:00,68.4,67.8,29.85,SSW,202,0.0,0.0,98,0.00,CLR,,0.00,WeatherDisplay:10.37,2013-06-27 07:46:00,
2013-06-27 03:51:00,68.5,68.0,29.85,SSW,202,0.0,0.0,98,0.00,CLR,,0.00,WeatherDisplay:10.37,2013-06-27 07:51:00,
2013-06-27 03:56:00,68.4,67.8,29.88,SSW,202,0.0,0.0,98,0.00,CLR,,0.00,WeatherDisplay:10.37,2013-06-27 07:56:00,
2013-06-27 04:01:00,68.4,67.8,29.88,SSW,202,0.0,0.0,98,0.00,CLR,,0.00,WeatherDisplay:10.37,2013-06-27 08:01:00,
2013-06-27 04:06:00,68.4,67.8,29.88,SSW,202,0.0,0.0,98,0.00,CLR,,0.00,WeatherDisplay:10.37,2013-06-27 08:06:00,
2013-06-27 04:11:00,68.4,67.8,29.85,SSW,202,0.0,0.0,98,0.00,CLR,,0.00,WeatherDisplay:10.37,2013-06-27 08:11:00,
2013-06-27 04:16:00,68.4,67.8,29.85,SSW,202,0.0,0.0,98,0.00,CLR,,0.00,WeatherDisplay:10.37,2013-06-27 08:16:00,
2013-06-27 04:21:00,68.4,67.8,29.85,SSW,202,0.0,0.0,98,0.00,CLR,,0.00,WeatherDisplay:10.37,2013-06-27 08:21:00,
2013-06-27 04:26:00,68.4,67.8,29.85,SSW,202,0.0,0.0,98,0.00,CLR,,0.00,WeatherDisplay:10.37,2013-06-27 08:26:00,
2013-06-27 04:31:00,68.4,67.8,29.85,SSW,202,0.0,0.0,98,0.00,CLR,,0.00,WeatherDisplay:10.37,2013-06-27 08:31:00,
2013-06-27 04:36:00,68.4,67.8,29.85,SSW,202,0.0,0.0,98,0.00,CLR,,0.00,WeatherDisplay:10.37,2013-06-27 08:36:00,
2013-06-27 04:41:00,68.4,67.8,29.85,SSW,202,0.0,0.0,98,0.00,CLR,,0.00,WeatherDisplay:10.37,2013-06-27 08:41:00,
2013-06-27 04:46:00,68.2,67.6,29.85,SSW,202,0.0,0.0,98,0.00,CLR,,0.00,WeatherDisplay:10.37,2013-06-27 08:46:00,
2013-06-27 04:51:00,68.2,67.6,29.85,SSW,202,0.0,0.0,98,0.00,CLR,,0.00,WeatherDisplay:10.37,2013-06-27 08:51:00,
2013-06-27 04:56:00,68.2,67.6,29.85,SSW,202,0.0,0.0,98,0.00,CLR,,0.00,WeatherDisplay:10.37,2013-06-27 08:56:00,
2013-06-27 05:01:00,68.4,67.8,29.85,SSW,202,0.0,0.0,98,0.00,CLR,,0.00,WeatherDisplay:10.37,2013-06-27 09:01:00,
2013-06-27 05:06:00,68.4,67.8,29.85,SSW,202,0.0,0.0,98,0.00,CLR,,0.00,WeatherDisplay:10.37,2013-06-27 09:06:00,
2013-06-27 05:11:00,68.4,67.8,29.85,SSW,202,0.0,0.0,98,0.00,CLR,,0.00,WeatherDisplay:10.37,2013-06-27 09:11:00,
2013-06-27 05:16:00,68.4,67.8,29.85,SSW,202,0.0,0.0,98,0.00,CLR,,0.00,WeatherDisplay:10.37,2013-06-27 09:16:00,
2013-06-27 05:21:00,68.4,67.8,29.85,SSW,202,0.0,0.0,98,0.00,CLR,,0.00,WeatherDisplay:10.37,2013-06-27 09:21:00,
2013-06-27 05:26:00,68.4,67.8,29.83,SSW,202,0.0,0.0,98,0.00,CLR,,0.00,WeatherDisplay:10.37,2013-06-27 09:26:00,
2013-06-27 05:31:00,68.4,67.8,29.83,SSW,202,0.0,0.0,98,0.00,CLR,,0.00,WeatherDisplay:10.37,2013-06-27 09:31:00,
2013-06-27 05:36:00,68.4,67.8,29.83,SSW,202,0.0,0.0,98,0.00,CLR,,0.00,WeatherDisplay:10.37,2013-06-27 09:36:00,
2013-06-27 05:41:00,68.4,67.8,29.85,SSW,202,0.0,0.0,98,0.00,CLR,,0.00,WeatherDisplay:10.37,2013-06-27 09:41:00,
2013-06-27 05:46:00,68.5,68.0,29.85,SSW,202,0.0,0.0,98,0.00,CLR,,0.00,WeatherDisplay:10.37,2013-06-27 09:46:00,
2013-06-27 05:51:00,68.5,68.0,29.85,SSW,202,0.0,0.0,98,0.00,CLR,,0.00,WeatherDisplay:10.37,2013-06-27 09:51:00,
2013-06-27 05:56:00,68.5,68.0,29.85,SSW,202,0.0,0.0,98,0.00,CLR,,0.00,WeatherDisplay:10.37,2013-06-27 09:56:00,
2013-06-27 06:01:00,68.7,68.1,29.85,SSW,202,0.0,0.0,98,0.00,CLR,,0.00,WeatherDisplay:10.37,2013-06-27 10:01:00,
2013-06-27 06:06:00,68.7,68.1,29.85,SSW,202,0.0,0.0,98,0.00,CLR,,0.00,WeatherDisplay:10.37,2013-06-27 10:06:00,
2013-06-27 06:11:00,68.9,68.3,29.85,SSW,202,0.0,0.0,98,0.00,CLR,,0.00,WeatherDisplay:10.37,2013-06-27 10:11:00,
2013-06-27 06:16:00,69.1,68.5,29.85,SSW,202,0.0,0.0,98,0.00,CLR,,0.00,WeatherDisplay:10.37,2013-06-27 10:16:00,
2013-06-27 06:21:00,69.3,68.7,29.85,SSW,202,0.0,0.0,98,0.00,CLR,,0.00,WeatherDisplay:10.37,2013-06-27 10:21:00,
2013-06-27 06:26:00,69.3,68.7,29.85,SSW,202,0.0,0.0,98,0.00,CLR,,0.00,WeatherDisplay:10.37,2013-06-27 10:26:00,
2013-06-27 06:31:00,69.4,68.9,29.85,SSW,202,0.0,0.0,98,0.00,CLR,,0.00,WeatherDisplay:10.37,2013-06-27 10:31:00,
2013-06-27 06:36:00,69.6,69.0,29.85,SSW,202,0.0,0.0,98,0.00,CLR,,0.00,WeatherDisplay:10.37,2013-06-27 10:36:00,
2013-06-27 06:41:00,69.6,69.0,29.83,SSW,202,0.0,0.0,98,0.00,CLR,,0.00,WeatherDisplay:10.37,2013-06-27 10:41:00,
2013-06-27 06:46:00,69.8,69.2,29.83,SSW,202,0.0,0.0,98,0.00,CLR,,0.00,WeatherDisplay:10.37,2013-06-27 10:46:00,
2013-06-27 06:51:00,69.8,69.2,29.83,SSW,202,0.0,0.0,98,0.00,CLR,,0.00,WeatherDisplay:10.37,2013-06-27 10:51:00,
2013-06-27 06:56:00,70.0,69.4,29.83,SSW,202,0.0,0.0,98,0.00,CLR,,0.00,WeatherDisplay:10.37,2013-06-27 10:56:00,
2013-06-27 07:01:00,70.0,69.4,29.83,SSW,202,0.0,0.0,98,0.00,CLR,,0.00,WeatherDisplay:10.37,2013-06-27 11:01:00,
2013-06-27 07:06:00,70.2,69.6,29.83,SSW,202,0.0,0.0,98,0.00,CLR,,0.00,WeatherDisplay:10.37,2013-06-27 11:06:00,
2013-06-27 07:11:00,70.2,69.6,29.83,SSW,202,0.0,0.0,98,0.00,CLR,,0.00,WeatherDisplay:10.37,2013-06-27 11:11:00,
2013-06-27 07:16:00,70.3,69.7,29.83,SSW,202,0.0,0.0,98,0.00,CLR,,0.00,WeatherDisplay:10.37,2013-06-27 11:16:00,
2013-06-27 07:21:00,70.3,69.7,29.83,SSW,202,0.0,0.0,98,0.00,CLR,,0.00,WeatherDisplay:10.37,2013-06-27 11:21:00,
2013-06-27 07:26:00,70.5,69.9,29.83,SSW,202,0.0,0.0,98,0.00,CLR,,0.00,WeatherDisplay:10.37,2013-06-27 11:26:00,
2013-06-27 07:31:00,70.7,70.1,29.83,SSW,202,0.0,0.0,98,0.00,CLR,,0.00,WeatherDisplay:10.37,2013-06-27 11:31:00,
2013-06-27 07:36:00,70.7,70.1,29.83,SSW,202,0.0,0.0,98,0.00,CLR,,0.00,WeatherDisplay:10.37,2013-06-27 11:36:00,
2013-06-27 07:41:00,70.9,70.3,29.83,SSW,202,0.0,0.0,98,0.00,CLR,,0.00,WeatherDisplay:10.37,2013-06-27 11:41:00,
2013-06-27 07:46:00,71.1,70.5,29.83,SSW,202,0.0,0.0,98,0.00,CLR,,0.00,WeatherDisplay:10.37,2013-06-27 11:46:00,
2013-06-27 07:51:00,71.1,70.5,29.83,SSW,202,0.0,0.0,98,0.00,CLR,,0.00,WeatherDisplay:10.37,2013-06-27 11:51:00,
2013-06-27 07:56:00,71.2,70.6,29.83,SSW,202,0.0,0.0,98,0.00,CLR,,0.00,WeatherDisplay:10.37,2013-06-27 11:56:00,
2013-06-27 08:01:00,71.4,70.8,29.83,SSW,202,0.0,0.0,98,0.00,CLR,,0.00,WeatherDisplay:10.37,2013-06-27 12:01:00,
2013-06-27 08:06:00,71.4,70.8,29.83,SSW,202,0.0,0.0,98,0.00,CLR,,0.00,WeatherDisplay:10.37,2013-06-27 12:06:00,
2013-06-27 08:11:00,71.6,71.0,29.83,SSW,202,0.0,0.0,98,0.00,CLR,,0.00,WeatherDisplay:10.37,2013-06-27 12:11:00,
2013-06-27 08:16:00,71.6,71.0,29.83,SSW,202,0.0,0.0,98,0.00,CLR,,0.00,WeatherDisplay:10.37,2013-06-27 12:16:00,
2013-06-27 08:21:00,71.8,71.2,29.83,SSW,202,0.0,0.0,98,0.00,CLR,,0.00,WeatherDisplay:10.37,2013-06-27 12:21:00,
2013-06-27 08:26:00,72.0,71.4,29.83,SSW,202,0.0,0.0,98,0.00,CLR,,0.00,WeatherDisplay:10.37,2013-06-27 12:26:00,
2013-06-27 08:31:00,72.1,71.5,29.83,SSW,202,0.0,0.0,98,0.00,CLR,,0.00,WeatherDisplay:10.37,2013-06-27 12:31:00,
2013-06-27 08:36:00,72.3,71.7,29.83,SSW,202,0.0,0.0,98,0.00,CLR,,0.00,WeatherDisplay:10.37,2013-06-27 12:36:00,
2013-06-27 08:41:00,72.3,71.7,29.83,SSW,202,0.0,0.0,98,0.00,CLR,,0.00,WeatherDisplay:10.37,2013-06-27 12:41:00,
2013-06-27 08:46:00,72.5,71.9,29.83,SSW,202,0.0,0.0,98,0.00,CLR,,0.00,WeatherDisplay:10.37,2013-06-27 12:46:00,
2013-06-27 08:51:00,72.5,71.9,29.83,SSW,202,0.0,0.0,98,0.00,CLR,,0.00,WeatherDisplay:10.37,2013-06-27 12:51:00,
2013-06-27 08:56:00,72.7,72.1,29.83,SSW,202,0.0,0.0,98,0.00,CLR,,0.00,WeatherDisplay:10.37,2013-06-27 12:56:00,
2013-06-27 09:01:00,72.7,72.1,29.83,SSW,202,0.0,0.0,98,0.00,CLR,,0.00,WeatherDisplay:10.37,2013-06-27 13:01:00,
2013-06-27 09:06:00,72.9,72.3,29.83,SSW,202,0.0,0.0,98,0.00,CLR,,0.00,WeatherDisplay:10.37,2013-06-27 13:06:00,
2013-06-27 09:11:00,73.0,72.4,29.85,SSW,202,0.0,0.0,98,0.00,CLR,,0.00,WeatherDisplay:10.37,2013-06-27 13:11:00,
2013-06-27 09:16:00,73.2,72.6,29.85,SSW,202,0.0,0.0,98,0.00,CLR,,0.00,WeatherDisplay:10.37,2013-06-27 13:16:00,
2013-06-27 09:21:00,73.4,72.8,29.85,SSW,202,0.0,0.0,98,0.00,CLR,,0.00,WeatherDisplay:10.37,2013-06-27 13:21:00,
2013-06-27 09:26:00,73.4,72.8,29.85,SSW,202,0.0,0.0,98,0.00,CLR,,0.00,WeatherDisplay:10.37,2013-06-27 13:26:00,
2013-06-27 09:31:00,73.6,73.0,29.85,SSW,202,0.0,0.0,98,0.00,CLR,,0.00,WeatherDisplay:10.37,2013-06-27 13:31:00,
2013-06-27 09:36:00,73.8,73.2,29.85,SSW,202,0.0,0.0,98,0.00,CLR,,0.00,WeatherDisplay:10.37,2013-06-27 13:36:00,
2013-06-27 09:41:00,74.3,73.7,29.83,SSW,202,0.0,0.0,98,0.00,CLR,,0.00,WeatherDisplay:10.37,2013-06-27 13:41:00,
2013-06-27 09:46:00,75.0,74.4,29.83,SSW,202,0.0,0.0,98,0.00,CLR,,0.00,WeatherDisplay:10.37,2013-06-27 13:46:00,
2013-06-27 09:51:00,75.6,75.0,29.83,SSW,202,0.0,0.0,98,0.00,CLR,,0.00,WeatherDisplay:10.37,2013-06-27 13:51:00,
2013-06-27 09:56:00,75.7,75.1,29.83,SSW,202,0.0,0.0,98,0.00,CLR,,0.00,WeatherDisplay:10.37,2013-06-27 13:56:00,
2013-06-27 10:01:00,76.1,75.5,29.83,SSW,202,0.0,0.0,98,0.00,CLR,,0.00,WeatherDisplay:10.37,2013-06-27 14:01:00,
2013-06-27 10:06:00,76.5,75.9,29.83,SSW,202,0.0,0.0,98,0.00,CLR,,0.00,WeatherDisplay:10.37,2013-06-27 14:06:00,
2013-06-27 10:11:00,77.2,76.6,29.83,SSW,202,0.0,0.0,98,0.00,CLR,,0.00,WeatherDisplay:10.37,2013-06-27 14:11:00,
2013-06-27 10:16:00,77.5,76.9,29.83,SSW,202,0.0,0.0,98,0.00,CLR,,0.00,WeatherDisplay:10.37,2013-06-27 14:16:00,
2013-06-27 10:21:00,77.9,77.3,29.83,SSW,202,0.0,0.0,98,0.00,CLR,,0.00,WeatherDisplay:10.37,2013-06-27 14:21:00,
2013-06-27 10:26:00,78.4,77.8,29.80,SSW,202,0.0,0.0,98,0.00,CLR,,0.00,WeatherDisplay:10.37,2013-06-27 14:26:00,
2013-06-27 10:31:00,79.0,78.1,29.80,SSW,202,0.0,0.0,97,0.00,CLR,,0.00,WeatherDisplay:10.37,2013-06-27 14:31:00,
2013-06-27 10:36:00,79.7,78.1,29.80,SSW,202,0.0,0.0,95,0.00,CLR,,0.00,WeatherDisplay:10.37,2013-06-27 14:36:00,
2013-06-27 10:41:00,80.6,78.1,29.83,SSW,202,0.0,0.0,92,0.00,CLR,,0.00,WeatherDisplay:10.37,2013-06-27 14:41:00,
2013-06-27 10:46:00,81.3,77.4,29.83,SSW,202,0.0,0.0,88,0.00,CLR,,0.00,WeatherDisplay:10.37,2013-06-27 14:46:00,
2013-06-27 10:51:00,82.6,76.5,29.83,SSW,202,0.0,0.0,82,0.00,CLR,,0.00,WeatherDisplay:10.37,2013-06-27 14:51:00,
2013-06-27 10:56:00,83.7,75.7,29.83,SSW,202,0.0,0.0,77,0.00,CLR,,0.00,WeatherDisplay:10.37,2013-06-27 14:56:00,
2013-06-27 11:01:00,84.0,74.0,29.83,SSW,202,0.0,0.0,72,0.00,CLR,,0.00,WeatherDisplay:10.37,2013-06-27 15:01:00,
2013-06-27 11:06:00,84.9,72.7,29.83,SSW,202,0.0,0.0,67,0.00,CLR,,0.00,WeatherDisplay:10.37,2013-06-27 15:06:00,
2013-06-27 11:11:00,85.8,72.7,29.83,SSW,202,0.0,0.0,65,0.00,CLR,,0.00,WeatherDisplay:10.37,2013-06-27 15:11:00,
2013-06-27 11:16:00,85.3,71.7,29.83,SSW,202,0.0,0.0,64,0.00,CLR,,0.00,WeatherDisplay:10.37,2013-06-27 15:16:00,
2013-06-27 11:21:00,85.5,71.4,29.83,SSW,202,0.0,0.0,63,0.00,CLR,,0.00,WeatherDisplay:10.37,2013-06-27 15:21:00,
2013-06-27 11:26:00,85.6,71.6,29.83,SSW,202,0.0,0.0,63,0.00,CLR,,0.00,WeatherDisplay:10.37,2013-06-27 15:26:00,
2013-06-27 11:31:00,86.2,72.1,29.83,SSW,202,0.0,0.0,63,0.00,CLR,,0.00,WeatherDisplay:10.37,2013-06-27 15:31:00,
2013-06-27 11:36:00,85.8,72.7,29.83,SSW,202,0.0,0.0,65,0.00,CLR,,0.00,WeatherDisplay:10.37,2013-06-27 15:36:00,
2013-06-27 11:41:00,86.2,70.7,29.83,SSW,202,0.0,0.0,60,0.00,CLR,,0.00,WeatherDisplay:10.37,2013-06-27 15:41:00,
2013-06-27 11:46:00,86.4,70.8,29.83,SSW,202,0.0,0.0,60,0.00,CLR,,0.00,WeatherDisplay:10.37,2013-06-27 15:46:00,
2013-06-27 11:51:00,86.9,69.3,29.83,SSW,202,0.0,0.0,56,0.00,CLR,,0.00,WeatherDisplay:10.37,2013-06-27 15:51:00,
2013-06-27 11:56:00,87.4,70.8,29.83,SSW,202,0.0,0.0,58,0.00,CLR,,0.00,WeatherDisplay:10.37,2013-06-27 15:56:00,
2013-06-27 12:01:00,87.6,68.4,29.83,SSW,202,0.0,0.0,53,0.00,CLR,,0.00,WeatherDisplay:10.37,2013-06-27 16:01:00,
2013-06-27 12:06:00,88.0,68.7,29.83,SSW,202,0.0,0.0,53,0.00,CLR,,0.00,WeatherDisplay:10.37,2013-06-27 16:06:00,
2013-06-27 12:11:00,88.2,68.3,29.83,SSW,202,0.0,0.0,52,0.00,CLR,,0.00,WeatherDisplay:10.37,2013-06-27 16:11:00,
2013-06-27 12:16:00,89.1,68.0,29.83,SSW,202,0.0,0.0,50,0.00,CLR,,0.00,WeatherDisplay:10.37,2013-06-27 16:16:00,
2013-06-27 12:21:00,89.6,66.1,29.83,SSW,202,0.0,0.0,46,0.00,CLR,,0.00,WeatherDisplay:10.37,2013-06-27 16:21:00,
2013-06-27 12:26:00,88.5,65.1,29.80,SSW,202,0.0,0.0,46,0.00,CLR,,0.00,WeatherDisplay:10.37,2013-06-27 16:26:00,
2013-06-27 12:31:00,88.2,67.8,29.80,SSW,202,0.0,0.0,51,0.00,CLR,,0.00,WeatherDisplay:10.37,2013-06-27 16:31:00,
2013-06-27 12:36:00,88.7,65.9,29.80,SSW,202,0.0,0.0,47,0.00,CLR,,0.00,WeatherDisplay:10.37,2013-06-27 16:36:00,
2013-06-27 12:41:00,88.7,64.6,29.80,SSW,202,0.0,0.0,45,0.00,CLR,,0.00,WeatherDisplay:10.37,2013-06-27 16:41:00,
2013-06-27 12:46:00,89.1,66.2,29.80,SSW,202,0.0,0.0,47,0.00,CLR,,0.00,WeatherDisplay:10.37,2013-06-27 16:46:00,
2013-06-27 12:51:00,88.9,64.8,29.80,SSW,202,0.0,0.0,45,0.00,CLR,,0.00,WeatherDisplay:10.37,2013-06-27 16:51:00,
2013-06-27 12:56:00,88.7,68.8,29.80,SSW,202,0.0,0.0,52,0.00,CLR,,0.00,WeatherDisplay:10.37,2013-06-27 16:56:00,
2013-06-27 13:01:00,88.7,69.4,29.80,SSW,202,0.0,0.0,53,0.00,CLR,,0.00,WeatherDisplay:10.37,2013-06-27 17:01:00,
2013-06-27 13:06:00,88.9,68.4,29.80,SSW,202,0.0,0.0,51,0.00,CLR,,0.00,WeatherDisplay:10.37,2013-06-27 17:06:00,
2013-06-27 13:11:00,89.2,68.2,29.80,SSW,202,0.0,0.0,50,0.00,CLR,,0.00,WeatherDisplay:10.37,2013-06-27 17:11:00,
2013-06-27 13:16:00,89.2,68.7,29.80,SSW,202,0.0,0.0,51,0.00,CLR,,0.00,WeatherDisplay:10.37,2013-06-27 17:16:00,
2013-06-27 13:21:00,88.9,66.0,29.80,SSW,202,0.0,0.0,47,0.00,CLR,,0.00,WeatherDisplay:10.37,2013-06-27 17:21:00,
2013-06-27 13:26:00,88.7,67.7,29.80,SSW,202,0.0,0.0,50,0.00,CLR,,0.00,WeatherDisplay:10.37,2013-06-27 17:26:00,
2013-06-27 13:31:00,89.4,67.7,29.80,SSW,202,0.0,0.0,49,0.00,CLR,,0.00,WeatherDisplay:10.37,2013-06-27 17:31:00,
2013-06-27 13:36:00,90.0,70.0,29.80,SSW,202,0.0,0.0,52,0.00,CLR,,0.00,WeatherDisplay:10.37,2013-06-27 17:36:00,
2013-06-27 13:41:00,89.8,66.2,29.80,SSW,202,0.0,0.0,46,0.00,CLR,,0.00,WeatherDisplay:10.37,2013-06-27 17:41:00,
2013-06-27 13:46:00,91.0,68.6,29.80,SSW,202,0.0,0.0,48,0.00,CLR,,0.00,WeatherDisplay:10.37,2013-06-27 17:46:00,
2013-06-27 13:51:00,92.1,67.1,29.80,SSW,202,0.0,0.0,44,0.00,CLR,,0.00,WeatherDisplay:10.37,2013-06-27 17:51:00,
2013-06-27 13:56:00,92.3,66.6,29.80,SSW,202,0.0,0.0,43,0.00,CLR,,0.00,WeatherDisplay:10.37,2013-06-27 17:56:00,
2013-06-27 14:01:00,91.8,64.7,29.80,SSW,202,0.0,0.0,41,0.00,CLR,,0.00,WeatherDisplay:10.37,2013-06-27 18:01:00,
2013-06-27 14:06:00,91.9,65.6,29.80,SSW,202,0.0,0.0,42,0.00,CLR,,0.00,WeatherDisplay:10.37,2013-06-27 18:06:00,
2013-06-27 14:11:00,92.7,64.8,29.77,SSW,202,0.0,0.0,40,0.00,CLR,,0.00,WeatherDisplay:10.37,2013-06-27 18:11:00,
2013-06-27 14:16:00,91.8,62.5,29.77,SSW,202,0.0,0.0,38,0.00,CLR,,0.00,WeatherDisplay:10.37,2013-06-27 18:16:00,
2013-06-27 14:21:00,91.0,64.1,29.77,SSW,202,0.0,0.0,41,0.00,CLR,,0.00,WeatherDisplay:10.37,2013-06-27 18:21:00,
2013-06-27 14:26:00,92.3,64.5,29.77,SSW,202,0.0,0.0,40,0.00,CLR,,0.00,WeatherDisplay:10.37,2013-06-27 18:26:00,
2013-06-27 14:31:00,92.7,64.1,29.77,SSW,202,0.0,0.0,39,0.00,CLR,,0.00,WeatherDisplay:10.37,2013-06-27 18:31:00,
2013-06-27 14:36:00,93.2,63.8,29.77,SSW,202,0.0,0.0,38,0.00,CLR,,0.00,WeatherDisplay:10.37,2013-06-27 18:36:00,
2013-06-27 14:41:00,92.8,62.7,29.77,SSW,202,0.0,0.0,37,0.00,CLR,,0.00,WeatherDisplay:10.37,2013-06-27 18:41:00,
2013-06-27 14:46:00,93.4,62.4,29.77,SSW,202,0.0,0.0,36,0.00,CLR,,0.00,WeatherDisplay:10.37,2013-06-27 18:46:00,
2013-06-27 14:51:00,93.4,64.7,29.77,SSW,202,0.0,0.0,39,0.00,CLR,,0.00,WeatherDisplay:10.37,2013-06-27 18:51:00,
2013-06-27 14:56:00,92.1,64.3,29.77,SSW,202,0.0,0.0,40,0.00,CLR,,0.00,WeatherDisplay:10.37,2013-06-27 18:56:00,
2013-06-27 15:01:00,91.9,63.4,29.77,SSW,202,0.0,0.0,39,0.00,CLR,,0.00,WeatherDisplay:10.37,2013-06-27 19:01:00,
2013-06-27 15:06:00,90.9,63.2,29.77,South,180,0.0,0.0,40,0.00,CLR,,0.00,WeatherDisplay:10.37,2013-06-27 19:06:00,
2013-06-27 15:11:00,90.9,64.6,29.77,South,180,0.0,0.0,42,0.00,CLR,,0.00,WeatherDisplay:10.37,2013-06-27 19:11:00,
2013-06-27 15:16:00,90.3,64.1,29.77,South,180,0.0,0.0,42,0.00,CLR,,0.00,WeatherDisplay:10.37,2013-06-27 19:16:00,
2013-06-27 15:21:00,91.2,64.9,29.77,South,180,0.0,0.0,42,0.00,CLR,,0.00,WeatherDisplay:10.37,2013-06-27 19:21:00,
2013-06-27 15:26:00,92.3,65.2,29.77,South,180,0.0,0.0,41,0.00,CLR,,0.00,WeatherDisplay:10.37,2013-06-27 19:26:00,
2013-06-27 15:31:00,92.3,65.9,29.77,South,180,0.0,0.0,42,0.00,CLR,,0.00,WeatherDisplay:10.37,2013-06-27 19:31:00,
2013-06-27 15:36:00,91.2,64.2,29.77,South,180,0.0,0.0,41,0.00,CLR,,0.00,WeatherDisplay:10.37,2013-06-27 19:36:00,
2013-06-27 15:41:00,90.1,64.6,29.74,South,180,0.0,0.0,43,0.00,CLR,,0.00,WeatherDisplay:10.37,2013-06-27 19:41:00,
2013-06-27 16:35:00,84.6,65.0,29.74,SSW,202,0.0,0.0,52,0.00,CLR,,0.00,WeatherDisplay:10.37,2013-06-27 20:35:00,
2013-06-27 16:41:00,84.7,66.8,29.74,SSW,202,0.0,0.0,55,0.00,CLR,,0.00,WeatherDisplay:10.37,2013-06-27 20:41:00,
2013-06-27 16:46:00,85.6,69.7,29.74,SSW,202,0.0,0.0,59,0.00,CLR,,0.00,WeatherDisplay:10.37,2013-06-27 20:46:00,
2013-06-27 16:51:00,86.7,69.1,29.74,SSW,202,0.0,0.0,56,0.00,CLR,,0.00,WeatherDisplay:10.37,2013-06-27 20:51:00,
2013-06-27 16:56:00,87.1,68.4,29.71,SSW,202,0.0,0.0,54,0.00,CLR,,0.00,WeatherDisplay:10.37,2013-06-27 20:56:00,
2013-06-27 17:01:00,86.9,66.0,29.71,SSW,202,0.0,0.0,50,0.00,CLR,,0.00,WeatherDisplay:10.37,2013-06-27 21:01:00,
2013-06-27 17:06:00,86.7,68.1,29.71,SSW,202,0.0,0.0,54,0.00,CLR,,0.00,WeatherDisplay:10.37,2013-06-27 21:06:00,
2013-06-27 17:11:00,85.6,69.2,29.74,SSW,202,0.0,0.0,58,0.00,CLR,,0.00,WeatherDisplay:10.37,2013-06-27 21:11:00,
2013-06-27 17:16:00,84.4,71.3,29.74,SSW,202,0.0,0.0,65,0.00,CLR,,0.00,WeatherDisplay:10.37,2013-06-27 21:16:00,
2013-06-27 17:21:00,84.0,72.3,29.74,SSW,202,0.0,0.0,68,0.04,RA,,0.04,WeatherDisplay:10.37,2013-06-27 21:21:00,
2013-06-27 17:26:00,83.3,72.9,29.74,SSW,202,0.0,0.0,71,0.04,RA,,0.04,WeatherDisplay:10.37,2013-06-27 21:26:00,
2013-06-27 17:31:00,83.5,74.7,29.74,SSW,202,0.0,0.0,75,0.04,,,0.04,WeatherDisplay:10.37,2013-06-27 21:31:00,
2013-06-27 17:36:00,84.0,75.6,29.74,SSW,202,0.0,0.0,76,0.04,CLR,,0.04,WeatherDisplay:10.37,2013-06-27 21:36:00,
2013-06-27 17:41:00,84.6,76.6,29.74,SSW,202,0.0,0.0,77,0.04,CLR,,0.04,WeatherDisplay:10.37,2013-06-27 21:41:00,
2013-06-27 17:48:00,84.9,76.5,29.74,SSW,202,0.0,0.0,76,0.04,CLR,,0.04,WeatherDisplay:10.37,2013-06-27 21:48:00,
2013-06-27 17:53:00,84.4,75.6,29.74,SSW,202,0.0,0.0,75,0.04,CLR,,0.04,WeatherDisplay:10.37,2013-06-27 21:53:00,
2013-06-27 17:58:00,83.8,75.9,29.71,SSW,202,0.0,0.0,77,0.04,CLR,,0.04,WeatherDisplay:10.37,2013-06-27 21:58:00,
2013-06-27 18:04:00,83.5,76.7,29.71,SSW,202,0.0,0.0,80,0.04,CLR,,0.04,WeatherDisplay:10.37,2013-06-27 22:04:00,
2013-06-27 18:09:00,83.3,77.2,29.71,SSW,202,0.0,0.0,82,0.04,CLR,,0.04,WeatherDisplay:10.37,2013-06-27 22:09:00,
2013-06-27 18:14:00,83.1,76.7,29.71,SSW,202,0.0,0.0,81,0.04,CLR,,0.04,WeatherDisplay:10.37,2013-06-27 22:14:00,
2013-06-27 18:19:00,82.9,75.8,29.71,SSW,202,0.0,0.0,79,0.04,CLR,,0.04,WeatherDisplay:10.37,2013-06-27 22:19:00,
2013-06-27 18:24:00,83.1,76.7,29.71,SSW,202,0.0,0.0,81,0.00,CLR,,0.04,WeatherDisplay:10.37,2013-06-27 22:24:00,
2013-06-27 18:29:00,82.9,76.9,29.71,SSW,202,0.0,0.0,82,0.00,CLR,,0.04,WeatherDisplay:10.37,2013-06-27 22:29:00,
2013-06-27 18:34:00,83.1,76.7,29.71,SSW,202,0.0,0.0,81,0.00,CLR,,0.04,WeatherDisplay:10.37,2013-06-27 22:34:00,
2013-06-27 18:40:00,83.1,76.7,29.71,SSW,202,0.0,0.0,81,0.00,CLR,,0.04,WeatherDisplay:10.37,2013-06-27 22:40:00,
2013-06-27 18:45:00,82.9,76.5,29.71,SSW,202,0.0,0.0,81,0.00,CLR,,0.04,WeatherDisplay:10.37,2013-06-27 22:45:00,
2013-06-27 18:50:00,82.8,77.1,29.71,SSW,202,0.0,0.0,83,0.00,CLR,,0.04,WeatherDisplay:10.37,2013-06-27 22:50:00,
2013-06-27 18:55:00,82.6,76.9,29.71,SSW,202,0.0,0.0,83,0.00,CLR,,0.04,WeatherDisplay:10.37,2013-06-27 22:55:00,
2013-06-27 19:00:00,82.4,76.7,29.71,SSW,202,0.0,0.0,83,0.00,CLR,,0.04,WeatherDisplay:10.37,2013-06-27 23:00:00,
2013-06-27 19:05:00,82.2,76.9,29.71,SSW,202,0.0,0.0,84,0.00,CLR,,0.04,WeatherDisplay:10.37,2013-06-27 23:05:00,
2013-06-27 19:10:00,81.7,76.0,29.74,SSW,202,0.0,0.0,83,0.00,CLR,,0.04,WeatherDisplay:10.37,2013-06-27 23:10:00,
2013-06-27 19:15:00,81.9,75.5,29.74,SSW,202,0.0,0.0,81,0.00,CLR,,0.04,WeatherDisplay:10.37,2013-06-27 23:15:00,
2013-06-27 19:20:00,81.9,76.2,29.74,SSW,202,0.0,0.0,83,0.00,CLR,,0.04,WeatherDisplay:10.37,2013-06-27 23:20:00,
2013-06-27 19:26:00,82.0,76.0,29.74,SSW,202,0.0,0.0,82,0.00,CLR,,0.04,WeatherDisplay:10.37,2013-06-27 23:26:00,
2013-06-27 19:31:00,81.9,75.8,29.74,SSW,202,0.0,0.0,82,0.00,CLR,,0.04,WeatherDisplay:10.37,2013-06-27 23:31:00,
2013-06-27 19:36:00,81.7,75.3,29.74,SSW,202,0.0,0.0,81,0.00,CLR,,0.04,WeatherDisplay:10.37,2013-06-27 23:36:00,
2013-06-27 19:42:00,81.7,74.9,29.74,SSW,202,0.0,0.0,80,0.00,CLR,,0.04,WeatherDisplay:10.37,2013-06-27 23:42:00,
2013-06-27 19:47:00,81.3,74.6,29.74,SSW,202,0.0,0.0,80,0.00,CLR,,0.04,WeatherDisplay:10.37,2013-06-27 23:47:00,
2013-06-27 19:52:00,81.1,74.8,29.74,SSW,202,0.0,0.0,81,0.00,CLR,,0.04,WeatherDisplay:10.37,2013-06-27 23:52:00,
2013-06-27 19:57:00,81.1,74.0,29.74,SSW,202,0.0,0.0,79,0.00,CLR,,0.04,WeatherDisplay:10.37,2013-06-27 23:57:00,
2013-06-27 20:02:00,80.8,74.4,29.74,SSW,202,0.0,0.0,81,0.00,CLR,,0.04,WeatherDisplay:10.37,2013-06-28 00:02:00,
2013-06-27 20:07:00,80.6,74.2,29.74,SSW,202,0.0,0.0,81,0.00,CLR,,0.04,WeatherDisplay:10.37,2013-06-28 00:07:00,
2013-06-27 20:12:00,80.4,74.4,29.74,SSW,202,0.0,0.0,82,0.00,CLR,,0.04,WeatherDisplay:10.37,2013-06-28 00:12:00,
2013-06-27 20:17:00,80.2,74.6,29.74,SSW,202,0.0,0.0,83,0.00,CLR,,0.04,WeatherDisplay:10.37,2013-06-28 00:17:00,
2013-06-27 20:22:00,79.9,74.6,29.74,SSW,202,0.0,0.0,84,0.00,CLR,,0.04,WeatherDisplay:10.37,2013-06-28 00:22:00,
2013-06-27 20:27:00,79.7,74.4,29.74,SSW,202,0.0,0.0,84,0.00,CLR,,0.04,WeatherDisplay:10.37,2013-06-28 00:27:00,
2013-06-27 20:33:00,79.5,74.3,29.74,SSW,202,0.0,0.0,84,0.00,CLR,,0.04,WeatherDisplay:10.37,2013-06-28 00:33:00,
2013-06-27 20:38:00,79.3,73.7,29.74,SSW,202,0.0,0.0,83,0.00,CLR,,0.04,WeatherDisplay:10.37,2013-06-28 00:38:00,
2013-06-27 20:43:00,79.2,73.9,29.74,SSW,202,0.0,0.0,84,0.00,CLR,,0.04,WeatherDisplay:10.37,2013-06-28 00:43:00,
2013-06-27 20:48:00,79.0,73.7,29.74,SSW,202,0.0,0.0,84,0.00,CLR,,0.04,WeatherDisplay:10.37,2013-06-28 00:48:00,
2013-06-27 20:53:00,78.8,73.9,29.74,SSW,202,0.0,0.0,85,0.00,CLR,,0.04,WeatherDisplay:10.37,2013-06-28 00:53:00,
2013-06-27 20:58:00,78.6,73.7,29.74,SSW,202,0.0,0.0,85,0.00,CLR,,0.04,WeatherDisplay:10.37,2013-06-28 00:58:00,
2013-06-27 21:04:00,78.4,73.9,29.74,SSW,202,0.0,0.0,86,0.00,CLR,,0.04,WeatherDisplay:10.37,2013-06-28 01:04:00,
2013-06-27 21:09:00,78.3,73.7,29.74,SSW,202,0.0,0.0,86,0.00,CLR,,0.04,WeatherDisplay:10.37,2013-06-28 01:09:00,
2013-06-27 21:14:00,78.3,73.7,29.74,SSW,202,0.0,0.0,86,0.00,CLR,,0.04,WeatherDisplay:10.37,2013-06-28 01:14:00,
2013-06-27 21:19:00,78.3,73.4,29.74,SSW,202,0.0,0.0,85,0.00,CLR,,0.04,WeatherDisplay:10.37,2013-06-28 01:19:00,
2013-06-27 21:25:00,78.3,73.4,29.74,SSW,202,0.0,0.0,85,0.00,CLR,,0.04,WeatherDisplay:10.37,2013-06-28 01:25:00,
2013-06-27 21:30:00,78.3,73.4,29.74,SSW,202,0.0,0.0,85,0.00,CLR,,0.04,WeatherDisplay:10.37,2013-06-28 01:30:00,
2013-06-27 21:35:00,78.3,73.7,29.74,SSW,202,0.0,0.0,86,0.00,CLR,,0.04,WeatherDisplay:10.37,2013-06-28 01:35:00,
2013-06-27 21:40:00,78.1,73.2,29.74,SSW,202,0.0,0.0,85,0.00,CLR,,0.04,WeatherDisplay:10.37,2013-06-28 01:40:00,
2013-06-27 21:45:00,78.1,72.8,29.74,SSW,202,0.0,0.0,84,0.00,CLR,,0.04,WeatherDisplay:10.37,2013-06-28 01:45:00,
2013-06-27 21:50:00,77.9,72.3,29.74,SSW,202,0.0,0.0,83,0.00,CLR,,0.04,WeatherDisplay:10.37,2013-06-28 01:50:00,
2013-06-27 21:55:00,77.9,71.6,29.74,SSW,202,0.0,0.0,81,0.00,CLR,,0.04,WeatherDisplay:10.37,2013-06-28 01:55:00,
2013-06-27 22:00:00,77.9,71.6,29.74,SSW,202,0.0,0.0,81,0.00,CLR,,0.04,WeatherDisplay:10.37,2013-06-28 02:00:00,
2013-06-27 22:06:00,77.7,71.1,29.74,SSW,202,0.0,0.0,80,0.00,CLR,,0.04,WeatherDisplay:10.37,2013-06-28 02:06:00,
2013-06-27 22:11:00,77.5,70.5,29.74,SSW,202,0.0,0.0,79,0.00,CLR,,0.04,WeatherDisplay:10.37,2013-06-28 02:11:00,
2013-06-27 22:16:00,77.4,70.3,29.74,SSW,202,0.0,0.0,79,0.00,CLR,,0.04,WeatherDisplay:10.37,2013-06-28 02:16:00,
2013-06-27 22:21:00,77.2,70.5,29.74,SSW,202,0.0,0.0,80,0.00,CLR,,0.04,WeatherDisplay:10.37,2013-06-28 02:21:00,
2013-06-27 22:26:00,77.0,71.1,29.74,SSW,202,0.0,0.0,82,0.00,CLR,,0.04,WeatherDisplay:10.37,2013-06-28 02:26:00,
2013-06-27 22:33:00,76.6,71.1,29.74,SSW,202,0.0,0.0,83,0.00,CLR,,0.04,WeatherDisplay:10.37,2013-06-28 02:33:00,
2013-06-27 22:38:00,76.5,71.3,29.74,SSW,202,0.0,0.0,84,0.00,CLR,,0.04,WeatherDisplay:10.37,2013-06-28 02:38:00,
2013-06-27 22:43:00,76.1,71.3,29.74,SSW,202,0.0,0.0,85,0.00,CLR,,0.04,WeatherDisplay:10.37,2013-06-28 02:43:00,
2013-06-27 22:48:00,76.1,71.6,29.74,SSW,202,0.0,0.0,86,0.00,CLR,,0.04,WeatherDisplay:10.37,2013-06-28 02:48:00,
2013-06-27 22:54:00,75.9,71.8,29.74,SSW,202,0.0,0.0,87,0.00,CLR,,0.04,WeatherDisplay:10.37,2013-06-28 02:54:00,
2013-06-27 22:59:00,75.9,71.8,29.74,SSW,202,0.0,0.0,87,0.00,CLR,,0.04,WeatherDisplay:10.37,2013-06-28 02:59:00,
2013-06-27 23:04:00,75.7,71.9,29.74,SSW,202,0.0,0.0,88,0.00,CLR,,0.04,WeatherDisplay:10.37,2013-06-28 03:04:00,
2013-06-27 23:09:00,75.7,72.3,29.77,SSW,202,0.0,0.0,89,0.00,CLR,,0.04,WeatherDisplay:10.37,2013-06-28 03:09:00,
2013-06-27 23:14:00,75.6,72.1,29.77,SSW,202,0.0,0.0,89,0.00,CLR,,0.04,WeatherDisplay:10.37,2013-06-28 03:14:00,
2013-06-27 23:19:00,75.4,72.2,29.77,SSW,202,0.0,0.0,90,0.00,CLR,,0.04,WeatherDisplay:10.37,2013-06-28 03:19:00,
2013-06-27 23:24:00,75.4,72.2,29.74,SSW,202,0.0,0.0,90,0.00,CLR,,0.04,WeatherDisplay:10.37,2013-06-28 03:24:00,
2013-06-27 23:29:00,75.2,72.1,29.74,SSW,202,0.0,0.0,90,0.00,CLR,,0.04,WeatherDisplay:10.37,2013-06-28 03:29:00,
2013-06-27 23:34:00,75.2,72.4,29.74,SSW,202,0.0,0.0,91,0.00,CLR,,0.04,WeatherDisplay:10.37,2013-06-28 03:34:00,
2013-06-27 23:40:00,75.2,72.4,29.77,SSW,202,0.0,0.0,91,0.00,CLR,,0.04,WeatherDisplay:10.37,2013-06-28 03:40:00,
2013-06-27 23:45:00,75.0,72.5,29.77,SSW,202,0.0,0.0,92,0.00,CLR,,0.04,WeatherDisplay:10.37,2013-06-28 03:45:00,
2013-06-27 23:50:00,75.0,72.9,29.77,SSW,202,0.0,0.0,93,0.00,CLR,,0.04,WeatherDisplay:10.37,2013-06-28 03:50:00,
2013-06-27 23:55:00,75.0,72.9,29.74,SSW,202,0.0,0.0,93,0.00,CLR,,0.04,WeatherDisplay:10.37,2013-06-28 03:55:00,